EW7225 Weather Reports


time (UTC)temp
C
wind
direction
speed
KPH
gust
KPH
rain 1hr
cm
rain 24hr
cm
rain mn
cm
humidity
%
barometer
mb
20260507102524 21 299 1.6 4.8 0.00 0.20 0.20 64 1014.7
20260507101519 21 217 0.0 3.2 0.00 0.20 0.20 64 1014.8
20260507100528 20 227 1.6 9.7 0.00 0.20 0.20 65 1014.7
20260507095536 19 245 4.8 6.4 0.00 0.20 0.20 69 1014.9
20260507094522 20 203 3.2 9.7 0.00 0.20 0.20 69 1014.8
20260507093551 19 133 0.0 9.7 0.00 0.20 0.20 68 1014.8
20260507092523 18 148 3.2 9.7 0.00 0.20 0.20 71 1014.7
20260507091536 19 223 1.6 6.4 0.00 0.20 0.20 70 1014.8
20260507090531 18 171 3.2 9.7 0.00 0.20 0.20 73 1014.7
20260507085523 18 94 3.2 9.7 0.00 0.20 0.20 73 1014.9
20260507084517 18 135 3.2 9.7 0.00 0.20 0.20 73 1014.9
20260507083531 18 0.0 0.0 0.00 0.20 0.20 72 1014.9
20260507082524 18 251 0.0 1.6 0.00 0.20 0.20 74 1015.0
20260507081519 18 78 1.6 6.4 0.00 0.20 0.20 75 1015.1
20260507080531 18 293 0.0 1.6 0.00 0.20 0.20 73 1015.1
20260507075524 17 138 1.6 6.4 0.00 0.20 0.20 76 1015.1
20260507073531 17 210 0.0 3.2 0.00 0.20 0.20 76 1015.2
20260507072524 15 245 4.8 6.4 0.00 0.20 0.20 80 1015.3
20260507071518 16 227 4.8 6.4 0.00 0.20 0.20 79 1015.2
20260507070612 15 233 3.2 6.4 0.00 0.20 0.20 84 1015.0
20260507065525 15 215 1.6 4.8 0.00 0.20 0.20 88 1014.9
20260507064519 13 0.0 0.0 0.00 0.20 0.20 96 1014.8
20260507063615 14 0.0 0.0 0.00 0.20 0.20 98 1014.7
20260507062547 14 211 0.0 3.2 0.00 0.20 0.20 99 1014.7
20260507061519 13 182 1.6 4.8 0.00 0.23 0.20 99 1014.7
20260507060533 13 0.0 0.0 0.00 0.23 0.20 99 1014.7
20260507055526 12 0.0 0.0 0.00 0.28 0.20 99 1014.7
20260507054540 12 0.0 0.0 0.00 0.28 0.20 99 1014.8
20260507053534 12 0.0 0.0 0.00 0.30 0.20 99 1014.8
20260507052527 12 0.0 0.0 0.00 0.30 0.20 99 1014.8
20260507051540 12 0.0 0.0 0.00 0.30 0.20 99 1014.8
20260507050554 12 256 0.0 1.6 0.00 0.30 0.20 99 1014.7
20260507045528 12 253 0.0 1.6 0.00 0.30 0.20 98 1014.8
20260507044541 12 0.0 0.0 0.00 0.30 0.20 98 1014.6
20260507043535 11 0.0 0.0 0.00 0.30 0.20 98 1014.5
20260507042548 11 0.0 0.0 0.00 0.30 0.20 98 1014.5
20260507041541 11 0.0 0.0 0.00 0.30 0.20 98 1014.6
20260507040535 11 253 1.6 3.2 0.00 0.30 0.20 98 1014.7
20260507035549 11 233 0.0 3.2 0.00 0.30 0.20 98 1014.5
20260507034522 11 0.0 0.0 0.05 0.30 0.20 98 1014.5
20260507033536 11 0.0 0.0 0.08 0.30 0.20 98 1014.4
20260507032549 11 0.0 0.0 0.08 0.30 0.20 98 1014.4
20260507031522 11 281 0.0 1.6 0.08 0.30 0.20 98 1014.5
20260507030536 11 0.0 0.0 0.08 0.30 0.20 98 1014.5
20260507025529 11 0.0 0.0 0.08 0.30 0.20 98 1014.5
20260507024525 11 0.0 0.0 0.05 0.25 0.15 97 1014.5
20260507023516 11 0.0 0.0 0.03 0.23 0.13 97 1014.3
20260507022528 11 0.0 0.0 0.05 0.23 0.13 97 1014.5
20260507021522 11 0.0 0.0 0.08 0.23 0.13 97 1014.5
20260507020535 12 264 0.0 3.2 0.13 0.23 0.13 97 1014.5
20260507015528 12 0.0 0.0 0.13 0.23 0.13 96 1014.5
20260507014522 12 0.0 0.0 0.10 0.20 0.10 96 1014.6
20260507013537 12 0.0 0.0 0.10 0.20 0.10 96 1014.7
20260507012529 12 0.0 0.0 0.08 0.18 0.08 95 1014.7
20260507011522 12 205 1.6 3.2 0.05 0.15 0.05 94 1014.5
20260507010536 12 129 1.6 4.8 0.00 0.10 0.00 93 1014.6
20260507005531 12 135 0.0 4.8 0.00 0.10 0.00 93 1014.6
20260507004522 12 139 0.0 4.8 0.00 0.10 0.00 92 1014.7
20260507003518 12 104 0.0 4.8 0.00 0.10 0.00 92 1014.8
20260507002530 12 0.0 0.0 0.00 0.10 0.00 92 1014.7
20260507001523 12 128 0.0 3.2 0.00 0.10 0.00 92 1014.7
20260507000536 12 112 0.0 9.7 0.00 0.10 0.00 91 1014.7
20260506235530 12 204 0.0 1.6 0.00 0.10 0.00 91 1014.8
20260506234523 12 204 1.6 6.4 0.00 0.10 0.00 90 1014.8
20260506233517 12 198 3.2 6.4 0.00 0.10 0.00 90 1014.8
20260506232533 12 169 3.2 4.8 0.00 0.10 0.00 90 1014.8
20260506231526 12 212 1.6 4.8 0.00 0.10 0.00 90 1014.8
20260506230518 12 138 3.2 11.3 0.00 0.10 0.00 90 1015.0
20260506225551 12 181 3.2 9.7 0.00 0.10 0.00 90 1014.9
20260506224525 12 200 1.6 9.7 0.00 0.10 0.00 89 1015.0
20260506223521 12 124 3.2 11.3 0.00 0.10 0.00 90 1014.9
20260506222532 13 183 1.6 6.4 0.00 0.10 0.00 89 1015.1
20260506221527 13 245 1.6 3.2 0.00 0.10 0.00 88 1015.0
20260506220557 13 159 1.6 9.7 0.00 0.10 0.00 88 1015.1
20260506215531 13 234 1.6 4.8 0.00 0.10 0.10 87 1015.1
20260506213518 13 146 3.2 11.3 0.00 0.10 0.10 86 1015.1
20260506212531 13 194 1.6 3.2 0.00 0.10 0.10 88 1015.0
20260506211525 13 208 0.0 3.2 0.00 0.10 0.10 89 1015.0
20260506210519 13 0.0 0.0 0.00 0.10 0.10 90 1015.0
20260506205532 13 0.0 0.0 0.00 0.10 0.10 90 1015.1
20260506204525 13 0.0 0.0 0.00 0.10 0.10 89 1015.2
20260506203539 13 0.0 0.0 0.00 0.10 0.10 88 1015.3
20260506202532 13 0.0 0.0 0.00 0.10 0.10 88 1015.3
20260506201526 13 16 1.6 3.2 0.00 0.10 0.10 88 1015.2
20260506200517 13 55 0.0 3.2 0.00 0.10 0.10 87 1015.2
20260506195607 14 0.0 0.0 0.00 0.10 0.10 87 1015.2
20260506194538 14 0.0 0.0 0.00 0.10 0.10 86 1015.1
20260506193606 13 0.0 0.0 0.00 0.10 0.10 87 1015.0
20260506192517 14 0.0 0.0 0.00 0.10 0.10 87 1014.9
20260506191528 14 0.0 0.0 0.00 0.10 0.10 86 1014.8
20260506190516 14 0.0 0.0 0.00 0.10 0.10 85 1014.6
20260506185526 14 0.0 0.0 0.00 0.10 0.10 84 1014.6
20260506184518 14 0.0 0.0 0.00 0.10 0.10 83 1014.6
20260506183530 14 0.0 0.0 0.00 0.10 0.10 83 1014.5
20260506182544 14 320 0.0 3.2 0.00 0.10 0.10 82 1014.4
20260506181517 14 324 0.0 3.2 0.00 0.10 0.10 83 1014.5
20260506180611 15 285 0.0 1.6 0.00 0.10 0.10 81 1014.4
20260506175524 15 262 0.0 3.2 0.00 0.10 0.10 80 1014.4
20260506174519 15 282 4.8 12.9 0.00 0.10 0.10 80 1014.4
20260506173531 15 264 3.2 11.3 0.00 0.10 0.10 79 1014.3
20260506172524 15 277 3.2 9.7 0.00 0.10 0.10 79 1014.2
20260506171535 15 263 3.2 6.4 0.00 0.10 0.10 79 1014.2
20260506170528 15 270 1.6 4.8 0.00 0.10 0.10 78 1014.2
20260506165520 16 266 3.2 6.4 0.00 0.10 0.10 77 1014.3
20260506164535 16 274 4.8 12.9 0.00 0.10 0.10 76 1014.3
20260506163527 16 257 3.2 14.5 0.00 0.10 0.10 74 1014.4
20260506162520 16 280 3.2 4.8 0.00 0.10 0.10 74 1014.4
20260506161536 16 264 3.2 6.4 0.00 0.10 0.10 74 1014.3
20260506160527 16 266 1.6 6.4 0.00 0.10 0.10 74 1014.3
20260506155520 16 276 3.2 6.4 0.00 0.10 0.10 74 1014.3
20260506154533 16 271 4.8 11.3 0.00 0.10 0.10 74 1014.4
20260506153520 16 258 3.2 9.7 0.00 0.10 0.10 73 1014.4
20260506152531 16 257 4.8 11.3 0.00 0.10 0.10 73 1014.3
20260506151519 16 242 4.8 12.9 0.00 0.10 0.10 74 1014.5
20260506150531 16 254 4.8 11.3 0.00 0.10 0.10 74 1014.7
20260506145521 16 243 4.8 16.1 0.00 0.10 0.10 72 1014.5
20260506144530 16 257 3.2 6.4 0.00 0.10 0.10 73 1014.4
20260506143520 16 228 4.8 11.3 0.00 0.10 0.10 73 1014.4
20260506142526 17 227 8.0 16.1 0.00 0.10 0.10 69 1014.4
20260506141534 17 231 9.7 17.7 0.00 0.10 0.10 67 1014.4
20260506140523 17 236 4.8 11.3 0.00 0.10 0.10 65 1014.5
20260506135530 17 267 6.4 20.9 0.00 0.10 0.10 64 1014.4
20260506134518 18 272 4.8 12.9 0.00 0.10 0.10 64 1014.3
20260506133527 18 225 6.4 11.3 0.00 0.10 0.10 64 1014.3
20260506132518 18 239 6.4 14.5 0.00 0.10 0.10 63 1014.3
20260506131527 18 249 1.6 4.8 0.00 0.10 0.10 64 1014.5
20260506130519 19 257 3.2 11.3 0.00 0.10 0.10 63 1014.5
20260506125533 19 221 6.4 14.5 0.00 0.10 0.10 60 1014.5
20260506124523 20 238 4.8 14.5 0.00 0.10 0.10 60 1014.6
20260506123516 18 235 4.8 12.9 0.00 0.10 0.10 61 1014.7
20260506122529 18 242 6.4 17.7 0.00 0.10 0.10 59 1014.5
20260506121522 19 225 4.8 14.5 0.00 0.10 0.10 60 1014.5
20260506120557 20 236 3.2 11.3 0.00 0.10 0.10 67 1014.5
20260506115547 20 221 4.8 9.7 0.00 0.10 0.10 66 1014.6
20260506114520 20 150 3.2 11.3 0.00 0.10 0.10 68 1014.6
20260506113534 20 213 1.6 6.4 0.00 0.10 0.10 70 1014.6
20260506112525 20 168 1.6 9.7 0.00 0.10 0.10 69 1014.7
20260506111520 18 224 1.6 6.4 0.00 0.10 0.10 72 1014.6
20260506110533 19 199 4.8 9.7 0.00 0.10 0.10 74 1014.8
20260506105524 18 132 1.6 6.4 0.00 0.10 0.10 74 1015.1
20260506104517 18 165 4.8 12.9 0.00 0.10 0.10 75 1015.1
20260506103551 17 152 4.8 12.9 0.00 0.10 0.10 80 1015.0